Location: Hamburg
(53.5500°N, 10.0000°E)
Time: 16:16:35
(UTC+02:00)

Vanguard 1 Rocket - Visible Passes

Search period start: 05 May 2016 00:00
Search period end: 15 May 2016 00:00
Orbit: 652 x 4225 km, 34.3° (Epoch: 04 May)

Date Brightness Start Highest point End Pass type
(mag) Time Alt. Az. Time Alt. Az. Time Alt. Az.
05 May 9.4 02:54:45 17° S 02:56:48 18° SSE 03:03:37 10° ESE visible
06 May 9.8 01:47:29 11° SE 01:47:29 11° SE 01:48:20 10° SE visible
06 May 9.4 04:04:46 13° SSW 04:10:01 24° SSE 04:19:40 10° ESE visible
07 May 9.3 02:57:33 17° S 02:59:20 19° SSE 03:05:57 10° ESE visible
08 May 9.7 01:50:21 11° SE 01:50:21 11° SE 01:51:42 10° SE visible
08 May 9.3 04:07:37 13° SW 04:12:41 23° S 04:21:27 10° SE visible
09 May 9.2 03:00:27 17° S 03:01:57 18° SSE 03:08:08 10° SE visible
10 May 9.6 01:53:19 12° SE 01:53:19 12° SE 01:54:33 10° SE visible
10 May 9.3 04:10:36 12° SW 04:15:23 20° S 04:23:03 10° SE visible
11 May 9.2 03:03:30 17° S 03:04:39 17° S 03:10:11 10° SE visible
12 May 9.6 01:56:28 11° SE 01:56:28 11° SE 01:57:07 10° SE visible
12 May 9.3 04:13:45 10° SW 04:18:08 17° S 04:24:23 10° SSE visible
13 May 9.2 03:06:46 15° S 03:07:23 15° S 03:12:02 10° SE visible
14 May 9.4 04:17:29 10° SW 04:20:56 14° S 04:25:14 10° SSE visible
